SAA342 FACT-FAOR

Flight info

Callsign SAA342
Flight time 1h 28m
Altitude 39000
Route KODES UQ42 OKLOK UQ52 APLEN DCT EVESI/N0370F230 Z41 UNRAG Z2 NIBEX NIBEX1D
Aircraft A343/H-SDE2E3FGHIJ4J5M1RWXY/LB1D1

Departure

Time 2026-05-06 16:26
Airport Cape Town International Airport (FACT)

Arrival

Time 2026-05-06 17:55
Airport O.R. Tambo International Airport (FAOR)
Time Latitude Longitude Altitude Speed Heading
2026-05-06 16:16 -33.96710 18.59928 168 ft 0 kts 75°
2026-05-06 16:20 -33.96711 18.59925 168 ft 3 kts 76°
2026-05-06 16:21 -33.96711 18.59895 168 ft 4 kts 92°
2026-05-06 16:21 -33.96715 18.59865 168 ft 4 kts 70°
2026-05-06 16:21 -33.96725 18.59843 168 ft 4 kts
2026-05-06 16:21 -33.96744 18.59848 168 ft 4 kts 344°
2026-05-06 16:22 -33.96770 18.59857 168 ft 3 kts 344°
2026-05-06 16:22 -33.96773 18.59858 168 ft 0 kts 344°
2026-05-06 16:23 -33.96750 18.59850 168 ft 11 kts 344°
2026-05-06 16:24 -33.96669 18.59824 168 ft 24 kts 345°
2026-05-06 16:24 -33.96429 18.59760 168 ft 28 kts 349°
2026-05-06 16:24 -33.96236 18.59729 167 ft 28 kts 14°
2026-05-06 16:24 -33.96130 18.59829 164 ft 30 kts 43°
2026-05-06 16:25 -33.96024 18.59967 158 ft 13 kts 74°
2026-05-06 16:25 -33.96073 18.60037 158 ft 11 kts 169°
2026-05-06 16:25 -33.96212 18.60079 157 ft 45 kts 165°
2026-05-06 16:25 -33.96708 18.60234 165 ft 99 kts 165°
2026-05-06 16:26 -33.97535 18.60492 180 ft 143 kts 165°
2026-05-06 16:26 -33.98499 18.60797 732 ft 146 kts 165°
2026-05-06 16:26 -33.99499 18.61112 1337 ft 152 kts 162°
2026-05-06 16:26 -34.00645 18.61223 1594 ft 189 kts 188°
2026-05-06 16:27 -34.01915 18.60357 1993 ft 230 kts 216°
2026-05-06 16:27 -34.02862 18.58704 2793 ft 253 kts 245°
2026-05-06 16:27 -34.03043 18.56550 3804 ft 269 kts 273°
2026-05-06 16:27 -34.02376 18.54392 4766 ft 282 kts 298°
2026-05-06 16:28 -34.01220 18.52458 5754 ft 289 kts 310°
2026-05-06 16:28 -33.99606 18.50990 6720 ft 296 kts 335°
2026-05-06 16:28 -33.97593 18.50570 7624 ft 298 kts
2026-05-06 16:28 -33.95606 18.51233 8539 ft 298 kts 27°
2026-05-06 16:29 -33.93773 18.52405 9415 ft 301 kts 36°
2026-05-06 16:29 -33.91980 18.53846 9908 ft 320 kts 39°
2026-05-06 16:29 -33.90107 18.55466 10225 ft 342 kts 39°
2026-05-06 16:29 -33.88112 18.57173 10551 ft 362 kts 38°
2026-05-06 16:30 -33.85988 18.58919 10876 ft 381 kts 37°
2026-05-06 16:30 -33.84497 18.60104 11127 ft 391 kts 36°
2026-05-06 16:30 -33.81380 18.62505 11916 ft 402 kts 34°
2026-05-06 16:30 -33.78993 18.64309 12581 ft 408 kts 34°
2026-05-06 16:31 -33.76569 18.66132 13259 ft 414 kts 34°
2026-05-06 16:31 -33.74115 18.67975 13978 ft 419 kts 34°
2026-05-06 16:31 -33.71629 18.69845 14601 ft 424 kts 34°
2026-05-06 16:31 -33.69118 18.71739 15276 ft 427 kts 33°
2026-05-06 16:32 -33.66591 18.73646 15963 ft 431 kts 33°
2026-05-06 16:32 -33.64044 18.75569 16624 ft 435 kts 33°
2026-05-06 16:32 -33.61469 18.77513 17276 ft 439 kts 33°
2026-05-06 16:32 -33.58883 18.79464 18093 ft 438 kts 33°
2026-05-06 16:33 -33.56305 18.81407 18846 ft 439 kts 33°
2026-05-06 16:33 -33.53706 18.83365 19340 ft 444 kts 33°
2026-05-06 16:33 -33.51072 18.85349 19890 ft 449 kts 32°
2026-05-06 16:34 -33.45753 18.89349 21011 ft 455 kts 32°
2026-05-06 16:34 -33.43094 18.91345 21544 ft 458 kts 32°
2026-05-06 16:34 -33.40349 18.93405 22086 ft 462 kts 32°
2026-05-06 16:34 -33.37622 18.95450 22623 ft 465 kts 32°
2026-05-06 16:35 -33.34906 18.97486 23133 ft 468 kts 32°
2026-05-06 16:35 -33.32141 18.99556 23635 ft 471 kts 31°
2026-05-06 16:35 -33.29347 19.01647 24050 ft 474 kts 32°
2026-05-06 16:35 -33.26544 19.03742 24514 ft 476 kts 32°
2026-05-06 16:36 -33.23736 19.05841 24954 ft 477 kts 32°
2026-05-06 16:36 -33.20907 19.07953 25331 ft 481 kts 32°
2026-05-06 16:36 -33.18059 19.10079 25714 ft 484 kts 32°
2026-05-06 16:36 -33.15206 19.12205 26152 ft 485 kts 32°
2026-05-06 16:37 -33.12328 19.14349 26420 ft 490 kts 33°
2026-05-06 16:37 -33.09424 19.16511 26717 ft 494 kts 33°
2026-05-06 16:37 -33.06500 19.18685 27201 ft 494 kts 33°
2026-05-06 16:37 -33.03579 19.20855 27610 ft 495 kts 33°
2026-05-06 16:38 -33.00662 19.23022 28024 ft 496 kts 33°
2026-05-06 16:38 -32.97732 19.25196 28423 ft 496 kts 33°
2026-05-06 16:38 -32.94792 19.27374 28755 ft 498 kts 33°
2026-05-06 16:38 -32.91837 19.29563 28926 ft 503 kts 33°
2026-05-06 16:39 -32.88852 19.31773 29167 ft 507 kts 33°
2026-05-06 16:39 -32.85866 19.33982 29563 ft 507 kts 33°
2026-05-06 16:39 -32.82894 19.36238 29995 ft 505 kts 37°
2026-05-06 16:39 -32.80172 19.38855 30414 ft 501 kts 45°
2026-05-06 16:40 -32.77720 19.41784 30731 ft 501 kts 48°
2026-05-06 16:40 -32.75361 19.44824 31032 ft 501 kts 50°
2026-05-06 16:40 -32.73055 19.47909 31362 ft 500 kts 50°
2026-05-06 16:40 -32.70760 19.51021 31715 ft 499 kts 51°
2026-05-06 16:41 -32.68475 19.54124 32029 ft 499 kts 51°
2026-05-06 16:41 -32.66187 19.57214 32322 ft 499 kts 50°
2026-05-06 16:41 -32.63881 19.60309 32622 ft 499 kts 50°
2026-05-06 16:41 -32.61565 19.63403 32751 ft 503 kts 50°
2026-05-06 16:42 -32.59240 19.66498 33018 ft 504 kts 50°
2026-05-06 16:42 -32.56907 19.69595 33355 ft 502 kts 50°
2026-05-06 16:42 -32.54607 19.72644 33685 ft 502 kts 50°
2026-05-06 16:42 -32.52253 19.75763 33988 ft 502 kts 50°
2026-05-06 16:43 -32.49961 19.78798 34238 ft 501 kts 50°
2026-05-06 16:43 -32.47629 19.81885 34407 ft 504 kts 50°
2026-05-06 16:43 -32.45281 19.84991 34503 ft 507 kts 50°
2026-05-06 16:43 -32.42928 19.88101 34715 ft 508 kts 50°
2026-05-06 16:44 -32.40571 19.91212 34905 ft 508 kts 49°
2026-05-06 16:44 -32.38209 19.94328 35114 ft 510 kts 49°
2026-05-06 16:44 -32.35834 19.97458 35283 ft 511 kts 49°
2026-05-06 16:44 -32.33459 20.00585 35470 ft 512 kts 49°
2026-05-06 16:45 -32.31080 20.03716 35649 ft 513 kts 49°
2026-05-06 16:45 -32.28694 20.06854 35828 ft 514 kts 49°
2026-05-06 16:45 -32.26301 20.09997 36006 ft 515 kts 49°
2026-05-06 16:45 -32.23903 20.13144 36182 ft 516 kts 49°
2026-05-06 16:46 -32.21498 20.16299 36335 ft 518 kts 49°
2026-05-06 16:46 -32.19087 20.19457 36514 ft 519 kts 49°
2026-05-06 16:46 -32.16660 20.22635 36666 ft 521 kts 49°
2026-05-06 16:46 -32.14237 20.25803 36837 ft 521 kts 49°
2026-05-06 16:47 -32.11805 20.28982 36992 ft 522 kts 49°
2026-05-06 16:47 -32.09366 20.32167 37172 ft 523 kts 49°
2026-05-06 16:47 -32.06923 20.35354 37323 ft 524 kts 49°
2026-05-06 16:47 -32.04475 20.38545 37500 ft 525 kts 49°
2026-05-06 16:48 -32.02019 20.41744 37645 ft 526 kts 49°
2026-05-06 16:48 -31.99560 20.44944 37809 ft 527 kts 49°
2026-05-06 16:48 -31.97094 20.48150 37939 ft 529 kts 48°
2026-05-06 16:48 -31.94616 20.51368 38045 ft 531 kts 48°
2026-05-06 16:49 -31.92136 20.54587 38193 ft 532 kts 48°
2026-05-06 16:49 -31.89648 20.57814 38370 ft 532 kts 48°
2026-05-06 16:49 -31.87159 20.61039 38523 ft 533 kts 48°
2026-05-06 16:49 -31.84663 20.64269 38683 ft 534 kts 48°
2026-05-06 16:50 -31.82159 20.67508 38821 ft 534 kts 48°
2026-05-06 16:50 -31.79691 20.70697 38980 ft 534 kts 48°
2026-05-06 16:50 -31.77188 20.73929 39047 ft 536 kts 48°
2026-05-06 16:51 -31.72175 20.80394 39056 ft 534 kts 48°
2026-05-06 16:51 -31.67169 20.86838 39055 ft 534 kts 47°
2026-05-06 16:52 -31.62155 20.93281 39041 ft 536 kts 47°
2026-05-06 16:52 -31.57115 20.99746 39043 ft 537 kts 47°
2026-05-06 16:53 -31.52078 21.06197 39033 ft 537 kts 47°
2026-05-06 16:53 -31.47023 21.12659 39034 ft 537 kts 47°
2026-05-06 16:54 -31.41978 21.19097 39027 ft 537 kts 47°
2026-05-06 16:54 -31.36923 21.25538 39026 ft 537 kts 47°
2026-05-06 16:55 -31.31874 21.31960 39014 ft 537 kts 47°
2026-05-06 16:55 -31.26810 21.38389 39024 ft 537 kts 47°
2026-05-06 16:56 -31.21744 21.44810 39018 ft 537 kts 47°
2026-05-06 16:56 -31.16671 21.51230 39017 ft 537 kts 47°
2026-05-06 16:57 -31.11597 21.57639 39012 ft 537 kts 47°
2026-05-06 16:57 -31.06520 21.64042 39011 ft 537 kts 47°
2026-05-06 16:58 -31.01480 21.70387 39012 ft 537 kts 47°
2026-05-06 16:58 -30.96396 21.76777 39016 ft 538 kts 47°
2026-05-06 16:59 -30.91303 21.83168 39006 ft 540 kts 46°
2026-05-06 16:59 -30.86174 21.89593 38993 ft 542 kts 46°
2026-05-06 17:00 -30.81047 21.96004 39002 ft 542 kts 46°
2026-05-06 17:00 -30.75978 22.02501 39005 ft 542 kts 51°
2026-05-06 17:01 -30.71327 22.09395 38979 ft 543 kts 52°
2026-05-06 17:01 -30.66738 22.16363 38990 ft 543 kts 52°
2026-05-06 17:02 -30.62180 22.23302 38987 ft 544 kts 51°
2026-05-06 17:02 -30.57583 22.30269 38989 ft 543 kts 51°
2026-05-06 17:03 -30.52981 22.37223 38986 ft 543 kts 51°
2026-05-06 17:03 -30.48374 22.44169 38988 ft 543 kts 51°
2026-05-06 17:04 -30.43766 22.51105 38972 ft 544 kts 51°
2026-05-06 17:04 -30.39147 22.58045 38987 ft 545 kts 51°
2026-05-06 17:05 -30.34499 22.65018 38985 ft 545 kts 51°
2026-05-06 17:05 -30.29861 22.71962 38974 ft 545 kts 51°
2026-05-06 17:06 -30.25226 22.78894 38975 ft 544 kts 50°
2026-05-06 17:06 -30.20584 22.85820 38968 ft 545 kts 50°
2026-05-06 17:07 -30.15940 22.92737 38971 ft 545 kts 50°
2026-05-06 17:07 -30.11290 22.99653 38964 ft 545 kts 50°
2026-05-06 17:08 -30.06635 23.06563 38968 ft 545 kts 50°
2026-05-06 17:08 -30.01975 23.13469 38965 ft 545 kts 50°
2026-05-06 17:09 -29.97321 23.20355 38961 ft 545 kts 50°
2026-05-06 17:09 -29.92655 23.27248 38934 ft 545 kts 50°
2026-05-06 17:10 -29.88020 23.34083 38959 ft 544 kts 50°
2026-05-06 17:10 -29.83360 23.40943 38958 ft 543 kts 50°
2026-05-06 17:11 -29.78704 23.47783 38957 ft 543 kts 50°
2026-05-06 17:11 -29.74048 23.54613 38962 ft 543 kts 50°
2026-05-06 17:12 -29.69363 23.61508 38961 ft 543 kts 50°
2026-05-06 17:12 -29.64773 23.68319 38956 ft 543 kts 50°
2026-05-06 17:13 -29.60149 23.75175 38962 ft 543 kts 50°
2026-05-06 17:13 -29.55514 23.82029 38946 ft 543 kts 50°
2026-05-06 17:14 -29.50871 23.88879 38960 ft 543 kts 49°
2026-05-06 17:14 -29.46231 23.95711 38972 ft 543 kts 49°
2026-05-06 17:15 -29.42373 24.01382 38965 ft 543 kts 49°
2026-05-06 17:15 -29.37728 24.08201 38965 ft 542 kts 49°
2026-05-06 17:16 -29.33084 24.15009 38975 ft 542 kts 49°
2026-05-06 17:16 -29.28436 24.21810 38975 ft 541 kts 49°
2026-05-06 17:17 -29.23792 24.28594 38970 ft 541 kts 49°
2026-05-06 17:17 -29.19145 24.35371 38973 ft 541 kts 49°
2026-05-06 17:18 -29.14497 24.42142 38976 ft 541 kts 48°
2026-05-06 17:18 -29.09841 24.48909 38980 ft 540 kts 48°
2026-05-06 17:19 -29.05193 24.55654 38980 ft 540 kts 48°
2026-05-06 17:19 -29.00540 24.62396 38988 ft 540 kts 48°
2026-05-06 17:20 -28.95885 24.69129 38988 ft 540 kts 48°
2026-05-06 17:20 -28.91223 24.75863 38988 ft 540 kts 48°
2026-05-06 17:21 -28.86566 24.82578 39002 ft 540 kts 48°
2026-05-06 17:21 -28.81899 24.89297 38994 ft 540 kts 48°
2026-05-06 17:22 -28.77226 24.96013 38994 ft 540 kts 48°
2026-05-06 17:22 -28.72558 25.02712 38999 ft 540 kts 47°
2026-05-06 17:23 -28.67884 25.09408 39004 ft 540 kts 47°
2026-05-06 17:23 -28.63211 25.16093 39010 ft 540 kts 47°
2026-05-06 17:24 -28.58533 25.22776 39011 ft 539 kts 47°
2026-05-06 17:24 -28.53851 25.29451 39007 ft 539 kts 47°
2026-05-06 17:25 -28.49200 25.36071 39005 ft 539 kts 47°
2026-05-06 17:25 -28.44483 25.42775 39008 ft 539 kts 47°
2026-05-06 17:26 -28.39792 25.49431 39015 ft 540 kts 47°
2026-05-06 17:26 -28.35122 25.56047 39015 ft 540 kts 47°
2026-05-06 17:27 -28.30393 25.62738 39025 ft 540 kts 47°
2026-05-06 17:27 -28.25687 25.69385 39020 ft 540 kts 46°
2026-05-06 17:28 -28.20976 25.76029 39020 ft 540 kts 46°
2026-05-06 17:28 -28.16267 25.82659 39020 ft 540 kts 46°
2026-05-06 17:29 -28.11588 25.89239 39024 ft 540 kts 46°
2026-05-06 17:29 -28.06872 25.95857 38997 ft 540 kts 46°
2026-05-06 17:30 -28.02153 26.02469 39029 ft 540 kts 46°
2026-05-06 17:30 -27.97431 26.09077 39033 ft 540 kts 46°
2026-05-06 17:31 -27.92710 26.15672 39035 ft 540 kts 46°
2026-05-06 17:31 -27.87979 26.22273 39036 ft 540 kts 46°
2026-05-06 17:32 -27.83248 26.28864 39036 ft 540 kts 45°
2026-05-06 17:32 -27.78525 26.35434 39041 ft 539 kts 45°
2026-05-06 17:33 -27.73763 26.41962 39007 ft 536 kts 44°
2026-05-06 17:33 -27.71384 26.45149 38808 ft 528 kts 44°
2026-05-06 17:33 -27.69032 26.48303 38528 ft 520 kts 44°
2026-05-06 17:33 -27.66721 26.51403 38306 ft 513 kts 44°
2026-05-06 17:34 -27.64434 26.54470 38032 ft 510 kts 44°
2026-05-06 17:34 -27.62151 26.57529 37755 ft 511 kts 43°
2026-05-06 17:34 -27.59855 26.60604 37499 ft 512 kts 43°
2026-05-06 17:34 -27.57561 26.63676 37245 ft 512 kts 43°
2026-05-06 17:35 -27.55268 26.66747 36982 ft 512 kts 43°
2026-05-06 17:35 -27.52978 26.69812 36731 ft 512 kts 43°
2026-05-06 17:35 -27.50682 26.72884 36496 ft 512 kts 43°
2026-05-06 17:36 -27.46095 26.79013 35523 ft 513 kts 43°
2026-05-06 17:36 -27.43782 26.82098 34793 ft 517 kts 43°
2026-05-06 17:36 -27.41452 26.85205 34092 ft 520 kts 43°
2026-05-06 17:36 -27.39153 26.88270 33208 ft 518 kts 43°
2026-05-06 17:37 -27.36860 26.91336 32313 ft 503 kts 43°
2026-05-06 17:37 -27.34650 26.94289 31535 ft 490 kts 43°
2026-05-06 17:37 -27.32448 26.97218 30974 ft 487 kts 42°
2026-05-06 17:37 -27.30262 27.00118 30458 ft 486 kts 43°
2026-05-06 17:38 -27.28081 27.03011 29877 ft 485 kts 43°
2026-05-06 17:38 -27.25904 27.05900 29299 ft 483 kts 43°
2026-05-06 17:38 -27.23735 27.08777 28719 ft 481 kts 43°
2026-05-06 17:38 -27.21581 27.11634 28154 ft 479 kts 43°
2026-05-06 17:39 -27.19429 27.14483 27577 ft 477 kts 44°
2026-05-06 17:39 -27.17293 27.17313 27039 ft 475 kts 44°
2026-05-06 17:39 -27.15154 27.20145 26487 ft 473 kts 44°
2026-05-06 17:39 -27.13029 27.22953 25902 ft 472 kts 44°
2026-05-06 17:40 -27.10909 27.25754 25339 ft 470 kts 44°
2026-05-06 17:40 -27.08797 27.28544 24779 ft 469 kts 44°
2026-05-06 17:40 -27.06686 27.31330 24206 ft 467 kts 45°
2026-05-06 17:40 -27.04584 27.34102 23631 ft 466 kts 45°
2026-05-06 17:41 -27.02483 27.36871 23012 ft 464 kts 45°
2026-05-06 17:41 -27.00398 27.39621 22447 ft 461 kts 45°
2026-05-06 17:41 -26.98325 27.42350 21883 ft 458 kts 45°
2026-05-06 17:41 -26.96270 27.45055 21310 ft 455 kts 45°
2026-05-06 17:42 -26.94231 27.47739 20901 ft 448 kts 45°
2026-05-06 17:42 -26.92219 27.50384 20344 ft 445 kts 45°
2026-05-06 17:42 -26.90213 27.53017 19827 ft 443 kts 45°
2026-05-06 17:42 -26.88218 27.55635 19320 ft 440 kts 45°
2026-05-06 17:43 -26.86249 27.58219 18713 ft 433 kts 45°
2026-05-06 17:43 -26.84322 27.60751 17491 ft 423 kts 45°
2026-05-06 17:43 -26.82412 27.63251 16437 ft 424 kts 45°
2026-05-06 17:43 -26.80501 27.65751 15986 ft 418 kts 45°
2026-05-06 17:44 -26.78626 27.68207 15583 ft 412 kts 45°
2026-05-06 17:44 -26.76772 27.70632 15143 ft 407 kts 45°
2026-05-06 17:44 -26.74956 27.73008 14409 ft 396 kts 46°
2026-05-06 17:44 -26.73190 27.75318 13096 ft 388 kts 46°
2026-05-06 17:45 -26.71433 27.77610 12079 ft 389 kts 46°
2026-05-06 17:45 -26.69674 27.79904 11624 ft 385 kts 46°
2026-05-06 17:45 -26.67936 27.82167 11163 ft 381 kts 46°
2026-05-06 17:45 -26.66157 27.84352 10649 ft 378 kts 44°
2026-05-06 17:46 -26.64375 27.86492 10197 ft 374 kts 44°
2026-05-06 17:46 -26.62603 27.88609 9658 ft 371 kts 44°
2026-05-06 17:46 -26.60848 27.90709 9236 ft 367 kts 44°
2026-05-06 17:46 -26.59109 27.92795 9120 ft 367 kts 44°
2026-05-06 17:47 -26.57375 27.94867 9126 ft 362 kts 44°
2026-05-06 17:47 -26.55700 27.96873 9142 ft 343 kts 44°
2026-05-06 17:47 -26.54122 27.98782 9127 ft 326 kts 44°
2026-05-06 17:47 -26.52615 28.00614 9064 ft 317 kts 44°
2026-05-06 17:48 -26.51137 28.02423 9030 ft 316 kts 44°
2026-05-06 17:48 -26.49654 28.04237 9026 ft 317 kts 44°
2026-05-06 17:48 -26.48164 28.06061 9023 ft 317 kts 44°
2026-05-06 17:48 -26.46694 28.07864 9021 ft 310 kts 44°
2026-05-06 17:49 -26.45254 28.09618 9023 ft 305 kts 44°
2026-05-06 17:49 -26.43842 28.11340 9018 ft 305 kts 44°
2026-05-06 17:49 -26.42408 28.13093 9000 ft 305 kts 44°
2026-05-06 17:49 -26.40946 28.14800 8991 ft 302 kts 36°
2026-05-06 17:50 -26.39139 28.15874 9004 ft 288 kts 12°
2026-05-06 17:50 -26.37262 28.16416 9007 ft 272 kts
2026-05-06 17:50 -26.35465 28.16921 9007 ft 260 kts
2026-05-06 17:50 -26.33757 28.17444 9005 ft 250 kts
2026-05-06 17:51 -26.32099 28.17973 9005 ft 247 kts
2026-05-06 17:51 -26.30445 28.18507 8896 ft 249 kts 10°
2026-05-06 17:51 -26.28771 28.19044 8574 ft 252 kts
2026-05-06 17:51 -26.27078 28.19565 8232 ft 252 kts
2026-05-06 17:52 -26.25433 28.20080 7846 ft 239 kts 10°
2026-05-06 17:52 -26.23882 28.20566 7536 ft 224 kts 10°
2026-05-06 17:52 -26.22421 28.21020 7243 ft 210 kts 10°
2026-05-06 17:52 -26.21080 28.21441 6998 ft 190 kts
2026-05-06 17:53 -26.19848 28.21823 6714 ft 178 kts
2026-05-06 17:53 -26.18693 28.22197 6467 ft 166 kts 10°
2026-05-06 17:53 -26.17617 28.22531 6239 ft 154 kts 10°
2026-05-06 17:53 -26.16615 28.22832 6012 ft 144 kts 11°
2026-05-06 17:54 -26.15642 28.23131 5820 ft 146 kts 10°
2026-05-06 17:54 -26.14664 28.23432 5620 ft 146 kts 12°
2026-05-06 17:54 -26.13724 28.23708 5566 ft 125 kts 14°
2026-05-06 17:54 -26.13065 28.23919 5551 ft 73 kts 17°
2026-05-06 17:55 -26.12648 28.23978 5548 ft 37 kts 351°
2026-05-06 17:55 -26.12605 28.23966 5549 ft 0 kts 343°
2026-05-06 17:55 -26.12579 28.23958 5549 ft 9 kts 342°
2026-05-06 17:55 -26.12556 28.23896 5548 ft 8 kts 253°
2026-05-06 17:56 -26.12590 28.23870 5551 ft 6 kts 205°
2026-05-06 17:56 -26.12658 28.23847 5554 ft 15 kts 196°
2026-05-06 17:56 -26.12766 28.23814 5552 ft 13 kts 195°
2026-05-06 17:56 -26.12863 28.23785 5550 ft 16 kts 195°
2026-05-06 17:57 -26.12972 28.23752 5552 ft 17 kts 195°
2026-05-06 17:57 -26.13091 28.23717 5554 ft 18 kts 195°
2026-05-06 17:57 -26.13215 28.23674 5551 ft 19 kts 197°
2026-05-06 17:57 -26.13342 28.23634 5555 ft 18 kts 195°
2026-05-06 17:58 -26.13463 28.23597 5556 ft 19 kts 195°
2026-05-06 17:58 -26.13591 28.23558 5558 ft 19 kts 195°
2026-05-06 17:58 -26.13717 28.23519 5562 ft 18 kts 195°
2026-05-06 17:58 -26.13789 28.23465 5558 ft 13 kts 255°
2026-05-06 17:59 -26.13755 28.23354 5556 ft 14 kts 315°
2026-05-06 17:59 -26.13680 28.23340 5556 ft 3 kts 338°
2026-05-06 17:59 -26.13663 28.23318 5556 ft 3 kts 295°
2026-05-06 17:59 -26.13661 28.23290 5555 ft 5 kts 275°
2026-05-06 18:00 -26.13659 28.23274 5551 ft 1 kts 276°
2026-05-06 18:00 -26.13659 28.23267 5555 ft 1 kts 276°
2026-05-06 18:00 -26.13658 28.23265 5555 ft 0 kts 276°